Mayport NS, FL

1:54 AM EDT on April 24, 2017 (GMT -0400)
Mayport Naval Station / Adm. David L. McDonald Field

Weather History for KNRB - August, 2014

Change the Weather History Date:

Saturday, August 9, 2014

  Actual Average Record
Temperature  
Mean Temperature 84 °F -  
Max Temperature 91 °F 87 °F 96 °F (2011)
Min Temperature 77 °F 73 °F 69 °F (2008)
Cooling Degree Days 19    
Growing Degree Days 34 (Base 50)    
Moisture  
Dew Point 75 °F    
Average Humidity 75    
Maximum Humidity 94    
Minimum Humidity 59    
Precipitation  
Precipitation 0.00 in - - ()
Sea Level Pressure  
Sea Level Pressure 30.02 in    
Wind  
Wind Speed 6 mph (SSW)    
Max Wind Speed 21 mph    
Max Gust Speed -    
Visibility 10 miles    
Events Thunderstorm    
Averages and records for this station are not official NWS values.
T = Trace of Precipitation, MM = Missing Value Source: NWS Daily Summary

Daily Weather History Graph

Daily Weather History Graph

Search for Another Location

Airport or City:

Trip Planner

Search our weather history database for the weather conditions in past years. The results will help you decide how hot, cold, wet, or windy it might be!

Date:

Astronomy

Aug. 09, 2014 Rise Set
Actual Time 6:48 AM EDT 8:12 PM EDT
Civil Twilight 6:23 AM EDT 8:38 PM EDT
Nautical Twilight 5:52 AM EDT 9:09 PM EDT
Astronomical Twilight 5:20 AM EDT 9:40 PM EDT
Moon 7:15 PM EDT (8/9) 5:28 AM EDT (8/9)
Length of Visible Light 14h 15m
Length of Day
13h 24m
Waxing Gibbous, 98% of the Moon is Illuminated
Aug 9
Waxing Gibbous
Aug 10
Full
Aug 17
Last Quarter
Aug 25
New
Sep 2
First Quarter

Hourly Weather History & Observations

Time (EDT) Temp. Heat Index Dew Point Humidity Pressure Visibility Wind Dir Wind Speed Gust Speed Precip Events Conditions
12:52 AM 78.1 °F - 73.9 °F 87% 30.03 in 10.0 mi Calm Calm - N/A   Clear
1:52 AM 78.1 °F - 73.9 °F 87% 30.03 in 10.0 mi WSW 3.5 mph - N/A   Clear
2:52 AM 77.0 °F - 73.9 °F 90% 30.01 in 10.0 mi South 3.5 mph - N/A   Clear
3:52 AM 77.0 °F - 75.0 °F 94% 30.00 in 10.0 mi SW 5.8 mph - N/A   Partly Cloudy
4:52 AM 77.0 °F - 75.0 °F 94% 30.00 in 10.0 mi SW 4.6 mph - N/A   Clear
5:52 AM 78.1 °F - 73.9 °F 87% 30.01 in 10.0 mi WSW 5.8 mph - N/A   Clear
6:52 AM 78.1 °F - 73.9 °F 87% 30.03 in 10.0 mi WSW 4.6 mph - N/A   Clear
7:52 AM 80.1 °F 84.2 °F 73.0 °F 79% 30.04 in 10.0 mi WSW 4.6 mph - N/A   Clear
8:52 AM 82.9 °F 89.4 °F 73.9 °F 74% 30.06 in 10.0 mi WSW 6.9 mph - N/A   Clear
9:52 AM 86.0 °F 96.0 °F 75.9 °F 72% 30.06 in 10.0 mi Variable 4.6 mph - N/A   Clear
10:49 AM 87.8 °F 97.6 °F 75.2 °F 66% 30.06 in 10.0 mi WSW 8.1 mph - N/A   Partly Cloudy
10:52 AM 87.1 °F 96.3 °F 75.0 °F 67% 30.06 in 10.0 mi West 8.1 mph - N/A   Partly Cloudy
11:00 AM 88.0 °F 97.5 °F 75.0 °F 65% 30.07 in 10.0 mi West 8.1 mph - N/A   Mostly Cloudy
11:52 AM 91.0 °F 101.6 °F 75.0 °F 59% 30.06 in 10.0 mi Variable 4.6 mph - N/A   Mostly Cloudy
12:52 PM 90.0 °F 102.5 °F 77.0 °F 65% 30.04 in 10.0 mi ESE 9.2 mph - N/A   Mostly Cloudy
1:52 PM 91.0 °F 104.2 °F 77.0 °F 63% 30.03 in 10.0 mi SE 10.4 mph - N/A   Mostly Cloudy
2:52 PM 90.0 °F 102.5 °F 77.0 °F 65% 30.01 in 10.0 mi SE 12.7 mph - N/A   Mostly Cloudy
3:52 PM 88.0 °F 100.2 °F 77.0 °F 70% 29.99 in 10.0 mi SSE 15.0 mph - N/A   Mostly Cloudy
4:02 PM 87.1 °F 96.3 °F 75.0 °F 67% 29.99 in 10.0 mi South 20.7 mph - N/A Thunderstorm Thunderstorm
4:15 PM 88.0 °F 95.6 °F 73.0 °F 61% 29.99 in 10.0 mi South 11.5 mph - N/A   Mostly Cloudy
4:52 PM 86.0 °F 93.0 °F 73.0 °F 65% 29.98 in 10.0 mi South 9.2 mph - N/A   Mostly Cloudy
5:52 PM 84.0 °F 89.6 °F 72.0 °F 67% 29.99 in 10.0 mi Variable 3.5 mph - N/A   Mostly Cloudy
6:52 PM 82.9 °F 88.8 °F 73.0 °F 72% 30.00 in 10.0 mi SE 8.1 mph - N/A   Mostly Cloudy
7:52 PM 82.0 °F 88.6 °F 75.0 °F 79% 29.99 in 10.0 mi South 6.9 mph - N/A   Mostly Cloudy
8:52 PM 82.0 °F 88.6 °F 75.0 °F 79% 30.01 in 10.0 mi SSW 4.6 mph - N/A   Mostly Cloudy
9:52 PM 82.0 °F 89.4 °F 75.9 °F 82% 30.02 in 10.0 mi South 6.9 mph - N/A   Mostly Cloudy
10:52 PM 80.1 °F 84.5 °F 73.9 °F 81% 30.02 in 10.0 mi SSW 5.8 mph - N/A   Mostly Cloudy
11:52 PM 80.1 °F 85.1 °F 75.0 °F 85% 30.02 in 10.0 mi SW 4.6 mph - N/A   Mostly Cloudy